Regional Weather Roundup
Issued by NWS

Home | Current Version | Previous Version | Text Only | Print | Product List | Glossary On
Versions: 1 2 3 4 5 6 7 8 9 10 11 12 13 14 15 16 17 18 19 20 21 22 23 24 25 26 27 28 29 30 31 32 33 34 35 36 37 38 39 40 41 42 43 44 45 46 47 48 49 50
000
ASUS45 KABQ 212010
RWRNM
WEATHER ROUNDUP FOR NEW MEXICO
NATIONAL WEATHER SERVICE ALBUQUERQUE NM
100 PM MST SUN DEC 21 2014

NOTE: "FAIR" MEANS FEW OR NO CLOUDS BELOW 12,000 FEET AGL WITH NO
       SIGNIFICANT WEATHER OR OBSTRUCTIONS TO VISION.

      THIS PRODUCT IS RELEASED AS TWO VERSIONS.  ONE VERSION NEAR
      THE TOP OF THE HOUR CONTAINING PRELIMINARY DATA FROM ALBUQUERQUE
      AND OTHER STATIONS.  A FINAL VERSION WITH ADDITIONAL DATA IS
      ISSUED ABOUT 10 MINUTES AFTER THE HOUR.

NMZ501-503-504-510>518-212100-
NORTHWEST PLATEAU/NORTHCENTRAL MOUNTAINS

CITY           SKY/WX    TMP DP  RH WIND       PRES   REMARKS
FARMINGTON     SUNNY     40  30  67 W9        29.97F WCI  34
LOS ALAMOS     PTSUNNY   35  26  70 CALM      29.94F
SANTA FE       PTSUNNY   43  26  51 NW13      29.91F
TAOS           CLOUDY    39  25  56 SW15G23   29.91F WCI  31
ANGEL FIRE     FAIR      32  24  72 W18G28    29.85F WCI  20

$$
NMZ402-403-502-505>509-212100-
WESTCENTRAL MOUNTAINS/SOUTHWEST MOUNTAINS

CITY           SKY/WX    TMP DP  RH WIND       PRES   REMARKS
GALLUP         MOSUNNY   44  30  57 SW12      30.04F
GRANTS         SUNNY     52  25  35 N17       30.00F
SILVER CITY    MOSUNNY   52  27  37 NW20      30.01F

$$
NMZ407-409-411-412-212100-
SOUTHERN DESERTS

CITY           SKY/WX    TMP DP  RH WIND       PRES   REMARKS
LORDSBURG      FAIR      52  34  50 W5        30.04F
DEMING         MOSUNNY   59  27  29 W21G29    29.97F
LAS CRUCES     MOSUNNY   56  29  34 W17G23    29.97F
HOLLOMAN AFB   PTSUNNY   52  31  44 CALM      29.96F
ALAMOGORDO     PTSUNNY   52  28  40 CALM      29.97F
T OR C         MOSUNNY   54  24  31 S8        29.96F

$$
NMZ519>523-212100-
CENTRAL VALLEYS/CENTRAL HIGHLANDS

CITY           SKY/WX    TMP DP  RH WIND       PRES   REMARKS
ALBUQUERQUE    PTSUNNY   45  28  51 S3        29.94F
DOUBLE EAGLE   PTSUNNY   45  27  49 CALM      29.94F
MORIARTY ARPT  FAIR      49  24  36 NW9G25    29.90F
CLINES CORNERS PTSUNNY   44  25  47 NW37G46   29.82F
BELEN          FAIR      47  28  45 NE8       29.97F
SOCORRO        FAIR      49  25  39 SE5       29.96F

$$
NMZ524>526-539-540-212100-
SOUTHCENTRAL MOUNTAINS

CITY           SKY/WX    TMP DP  RH WIND       PRES   REMARKS
RUIDOSO        MOSUNNY   46  23  39 NW28G41   29.96R

$$
NMZ527>531-212100-
NORTHEAST HIGHLANDS/NORTHEAST PLAINS

CITY           SKY/WX    TMP DP  RH WIND       PRES   REMARKS
LAS VEGAS      PTSUNNY   48  18  30 S7        29.74F
RATON          CLOUDY    43  19  38 NE6       29.66F
CLAYTON        CLOUDY    56  22  26 W13       29.64F

$$
NMZ532>537-212100-
EASTCENTRAL PLAINS

CITY           SKY/WX    TMP DP  RH WIND       PRES   REMARKS
TUCUMCARI      SUNNY     60  17  18 SW9       29.68F
CANNON AFB     MOSUNNY   58  25  28 W21G30    29.73F
CLOVIS AIRPORT SUNNY     57  27  30 W23       29.73F

$$
NMZ028-029-538-212100-
SOUTHEAST PLAINS

CITY           SKY/WX    TMP DP  RH WIND       PRES   REMARKS
ROSWELL        SUNNY     67  25  20 NW6       29.80F
ARTESIA        SUNNY     66  28  24 SW17      29.79F
CARLSBAD       SUNNY     67  25  20 W22       29.79F
HOBBS          SUNNY     63  25  23 SW17G24   29.82F


$$


USA.gov is the U.S. government's official web portal to all federal, state and local government web resources and services.